Zurück zum Katalog

THORAD AGENA D DEB

AktivSSO
NORAD 4644·DEBRIS·🇺🇸 United States

Gestartet Apr 8, 1970 von Vandenberg Space Force Base

Loading…

Nächste Überflüge (nächste 24 Stunden)

TLE

AktuellSource: Space-Track

Epoche: Sep 13, 2026, 22:55 UTC

1  4644U 70025AC  26256.95530154  .00000057  00000-0  13313-3 0  9991
2  4644  99.5420 148.5888 0014232  68.5485 302.6045 13.60571439789259

Verfolge THORAD AGENA D DEB in Echtzeit mit AllMySat

Download on the App Store